Home > Weather > Missoula > Past weeks

Flag for USA Past Weather in Missoula, Montana, USA — Yesterday and Last 2 Weeks

Now
77 °F

Sunny.


Feels Like: 77 °F
Forecast: 49 / 84 °F
Wind: 12 mph from Northwest

Location: Missoula International Airport

Current Time: Jul 23, 2016 at 9:03:21 PM

Latest Report: Jul 23, 2016 at 7:53 PM


Visibility: 10 mi

Pressure: 30.03 "Hg (26.87 "Hg at 971m altitude)

Humidity: 24%

Dew Point: 37 °F

Location of MissoulaLocation

Past Weather in Missoula — Graph

°F

Missoula Temperature Yesterday

Maximum temperature yesterday: 85 °F (at 12:53 PM)
Minimum temperature yesterday: 53 °F (at 6:53 AM)
Average temperature yesterday: 70 °F

High & Low Weather Summary for the Past Weeks

 TemperatureHumidityPressure
High92 °F (Jul 21, 4:53 PM)97% (Jul 10, 3:53 AM)30.23 "Hg (Jul 10, 3:53 AM)
Low41 °F (Jul 12, 5:53 AM)16% (Jul 15, 5:53 PM)29.77 "Hg (Jul 10, 1:53 PM)
Average64 °F58%30.00 "Hg
* Reported Jul 8 7:53 PM — Jul 23 7:53 PM, Missoula, Weather by CustomWeather, © 2016

Note: Actual official high and low records may vary slightly from our data, if they occured in-between our weather recording intervals... More about our weather records

Advertising

Missoula Weather History for the Previous 24 Hours

Scroll right to see more
 ConditionsComfort  
Time TempWeatherWind HumidityBarometerVisibility
7:53 PM
Sat, Jul 23
77 °FSunny.12 mph24%30.03 "Hg10 mi
6:53 PM79 °FPassing clouds.12 mph23%30.04 "Hg10 mi
5:53 PM78 °FSunny.9 mph24%30.03 "Hg10 mi
4:53 PM80 °FScattered clouds.7 mph23%30.05 "Hg10 mi
3:53 PM77 °FScattered clouds.No wind26%30.06 "Hg10 mi
2:53 PM76 °FSunny.9 mph30%30.08 "Hg10 mi
1:53 PM76 °FSunny.N/A32%30.09 "Hg10 mi
12:53 PM73 °FPassing clouds.6 mph36%30.11 "Hg10 mi
11:53 AM71 °FScattered clouds.No wind39%30.12 "Hg10 mi
10:53 AM70 °FSunny.3 mph42%30.13 "Hg10 mi
9:53 AM66 °FSunny.No wind49%30.14 "Hg10 mi
8:53 AM64 °FSunny.No wind52%30.15 "Hg10 mi
7:53 AM61 °FSunny.7 mph60%30.13 "Hg10 mi
6:53 AM55 °FClear.3 mph72%30.13 "Hg10 mi
5:53 AM59 °FPassing clouds.No wind60%30.11 "Hg10 mi
4:53 AM58 °FPassing clouds.7 mph65%30.09 "Hg10 mi
3:53 AM62 °FOvercast.3 mph56%30.09 "Hg10 mi
2:53 AM61 °FPassing clouds.3 mph56%30.09 "Hg10 mi
1:53 AM62 °FOvercast.No wind56%30.09 "Hg10 mi
12:53 AM65 °FMostly cloudy.No wind49%30.09 "Hg10 mi
11:53 PM
Fri, Jul 22
63 °FPassing clouds.3 mph48%30.09 "Hg10 mi
10:53 PM65 °FClear.9 mph47%30.09 "Hg10 mi
9:53 PM68 °FSunny.9 mph45%30.07 "Hg10 mi
Weather by CustomWeather, © 2016

See weather overviewHow to use our weather pages